Location: ??????
(41.3794°N, 22.5014°E)
Time: 21:57:23
(UTC+00:00)

SAR-Lupe-4 - Pass Details

Date: 30 November 2020
Orbit: 481 x 484 km, 98.2° (Epoch: 09 January)

Event Time Altitude Azimuth Distance (km) Brightness Sun altitude
Exits shadow 16:19:57 22° 40° (NE) 1,115 4.9 -14.4°
Maximum altitude 16:21:53 41° 99° (E) 712 3.9 -14.7°
Drops below altitude 10° 16:25:17 10° 172° (S) 1,660 6.4 -15.4°
Sets 16:27:24 0° 179° (S) 2,535 7.4 -15.7°
